Rockford, IL

10:16 PM CST on February 17, 2018 (GMT -0600)
Greater Rockford

Weather History for KRFD - August, 2013

Change the Weather History Date:

Wednesday, August 7, 2013

  Actual Average Record
Temperature  
Mean Temperature 77 °F 73 °F  
Max Temperature 87 °F 83 °F 101 °F (1918)
Min Temperature 66 °F 62 °F 49 °F (1989)
Degree Days  
Heating Degree Days 0 0  
Month to date heating degree days 0 0  
Since 1 June heating degree days 43 34  
Since 1 July heating degree days 9 3  
Cooling Degree Days 12 8  
Month to date cooling degree days 49 56  
Year to date cooling degree days 566 560  
Since 1 June cooling degree days 474 505  
Growing Degree Days 28 (Base 50)    
Moisture  
Dew Point 67 °F    
Average Humidity 73    
Maximum Humidity 100    
Minimum Humidity 46    
Precipitation  
Precipitation 0.00 in 0.14 in 5.15 in (2007)
Month to date precipitation 1.28 1.03  
Year to date precipitation 30.36 22.10  
Snow  
Snow 0.00 in 0.00 in 0.00 in ()
Month to date snowfall 0.0 0.0  
Since 1 June snowfall 0.0 0.0  
Since 1 July snowfall 0.0 0.0  
Snow Depth 0.00 in    
Sea Level Pressure  
Sea Level Pressure 29.85 in    
Wind  
Wind Speed 7 mph (WNW)    
Max Wind Speed 16 mph    
Max Gust Speed 21 mph    
Visibility 8 miles    
Events      
T = Trace of Precipitation, MM = Missing Value Source: NWS Daily Summary

Daily Weather History Graph

Daily Weather History Graph

Search for Another Location

Airport or City:

Trip Planner

Search our weather history database for the weather conditions in past years. The results will help you decide how hot, cold, wet, or windy it might be!

Date:

Astronomy

Aug. 07, 2013 Rise Set
Actual Time 5:55 AM CDT 8:07 PM CDT
Civil Twilight 5:24 AM CDT 8:38 PM CDT
Nautical Twilight 4:46 AM CDT 9:16 PM CDT
Astronomical Twilight 4:04 AM CDT 9:58 PM CDT
Moon 6:46 AM CDT (8/7) 8:12 PM CDT (8/7)
Length of Visible Light 15h 13m
Length of Day
14h 12m
New Moon, 1% of the Moon is Illuminated
Aug 7
New Moon
Aug 14
First Quarter
Aug 20
Full
Aug 28
Last Quarter
Sep 5
New

Hourly Weather History & Observations

Time (CDT) Temp. Heat Index Dew Point Humidity Pressure Visibility Wind Dir Wind Speed Gust Speed Precip Events Conditions
12:54 AM 73.0 °F - 71.1 °F 93% 29.82 in 6.0 mi SSW 6.9 mph - N/A   Clear
1:54 AM 73.0 °F - 70.0 °F 90% 29.81 in 8.0 mi South 5.8 mph - N/A   Scattered Clouds
2:54 AM 72.0 °F - 70.0 °F 93% 29.81 in 6.0 mi South 5.8 mph - N/A   Mostly Cloudy
3:54 AM 72.0 °F - 70.0 °F 93% 29.79 in 5.0 mi SSW 8.1 mph - N/A   Scattered Clouds
4:54 AM 72.0 °F - 70.0 °F 93% 29.80 in 5.0 mi SSW 5.8 mph - N/A   Mostly Cloudy
5:54 AM 71.1 °F - 70.0 °F 96% 29.80 in 4.0 mi SSW 5.8 mph - N/A   Mostly Cloudy
6:41 AM 71.6 °F - 71.6 °F 100% 29.83 in 3.0 mi SSW 4.6 mph - N/A   Overcast
6:54 AM 72.0 °F - 71.1 °F 97% 29.82 in 3.0 mi SW 3.5 mph - N/A   Overcast
7:54 AM 73.9 °F - 72.0 °F 93% 29.83 in 6.0 mi SSW 4.6 mph - N/A   Mostly Cloudy
8:54 AM 78.1 °F - 70.0 °F 76% 29.83 in 10.0 mi West 6.9 mph - N/A   Mostly Cloudy
9:54 AM 81.0 °F 84.1 °F 69.1 °F 67% 29.83 in 10.0 mi WNW 9.2 mph - N/A   Scattered Clouds
10:54 AM 82.0 °F 85.9 °F 70.0 °F 67% 29.84 in 10.0 mi West 6.9 mph - N/A   Scattered Clouds
11:54 AM 82.9 °F 87.0 °F 70.0 °F 65% 29.85 in 10.0 mi NW 6.9 mph - N/A   Scattered Clouds
12:54 PM 84.0 °F 87.8 °F 69.1 °F 61% 29.84 in 10.0 mi NW 6.9 mph - N/A   Scattered Clouds
1:54 PM 86.0 °F 88.2 °F 66.0 °F 51% 29.84 in 10.0 mi NW 11.5 mph - N/A   Scattered Clouds
2:54 PM 87.1 °F 88.9 °F 64.9 °F 48% 29.84 in 10.0 mi NNW 12.7 mph - N/A   Scattered Clouds
3:54 PM 86.0 °F 87.3 °F 64.0 °F 48% 29.85 in 10.0 mi North 11.5 mph - N/A   Scattered Clouds
4:54 PM 84.0 °F 85.4 °F 64.0 °F 51% 29.86 in 10.0 mi North 9.2 mph - N/A   Scattered Clouds
5:54 PM 82.9 °F 84.4 °F 64.0 °F 53% 29.87 in 10.0 mi North 12.7 mph - N/A   Scattered Clouds
6:54 PM 78.1 °F - 64.0 °F 62% 29.89 in 10.0 mi North 12.7 mph - N/A   Scattered Clouds
7:54 PM 73.9 °F - 63.0 °F 68% 29.92 in 10.0 mi North 11.5 mph - N/A   Partly Cloudy
8:54 PM 71.1 °F - 62.1 °F 73% 29.94 in 10.0 mi North 5.8 mph - N/A   Scattered Clouds
9:54 PM 72.0 °F - 62.1 °F 71% 29.96 in 10.0 mi NE 6.9 mph - N/A   Mostly Cloudy
10:54 PM 70.0 °F - 62.1 °F 76% 29.97 in 10.0 mi Calm Calm - N/A   Mostly Cloudy
11:54 PM 70.0 °F - 62.1 °F 76% 29.97 in 10.0 mi Calm Calm - N/A   Scattered Clouds